Location: Unspecified
(58.7730°N, 5.8460°E)
Time: 19:11:10
(UTC+02:00)

Cosmos 2058 - Visible Passes

Search period start: 26 April 2015 00:00
Search period end: 06 May 2015 00:00
Orbit: 566 x 590 km, 82.5° (Epoch: 26 April)

Date Brightness Start Highest point End Pass type
(mag) Time Alt. Az. Time Alt. Az. Time Alt. Az.
01 May 6.0 04:18:44 10° E 04:19:59 11° E 04:21:24 10° ENE visible
02 May 5.8 04:22:13 10° ESE 04:24:21 14° E 04:26:38 10° NE visible
03 May 5.6 04:26:00 10° SE 04:28:43 18° E 04:31:32 10° NE visible
04 May 5.4 04:29:58 10° SE 04:33:06 22° E 04:36:19 10° NE visible
05 May 5.0 04:34:03 10° SE 04:37:29 27° E 04:41:01 10° NNE visible
